Location: Roland
(31.1349°N, 85.4372°W)
Time: 04:38:07
(UTC+00:00)

Courier 1B - Pass Details

Date: 27 April 2021
Orbit: 962 x 1209 km, 28.3° (Epoch: 07 May)

Event Time Altitude Azimuth Distance (km) Brightness Sun altitude
Rises 12:34:46 0° 208° (SSW) 4,058 10.4 18.9°
Reaches altitude 10° 12:38:44 10° 190° (S) 3,063 10.0 19.7°
Maximum altitude 12:43:27 18° 151° (SSE) 2,482 10.1 20.8°
Drops below altitude 10° 12:48:02 10° 112° (ESE) 2,961 11.4 21.7°
Sets 12:51:45 0° 94° (E) 3,870 12.1 22.5°
